This is the latest recevied weather packets stored in our database for station/object W5CRT. If no packets are shown the sender has not sent any weather packets the latest 10 day(s).
| Time | Temp. | Humidity | Pressure | Rain* | Wind** | Luminosity | Snow |
|---|---|---|---|---|---|---|---|
| 1777761666 | 26.11° C | 31% | 1017.3 hPa | 0 mm | - | 433 W/m² | - |
| 1777761363 | 26.11° C | 33% | 1017.3 hPa | 0 mm | - | 456 W/m² | - |
| 1777761062 | 25.56° C | 33% | 1017.4 hPa | 0 mm | - | 485 W/m² | - |
| 1777760759 | 25.56° C | 30% | 1017.1 hPa | 0 mm | - | 495 W/m² | - |
| 1777760455 | 26.11° C | 31% | 1017.2 hPa | 0 mm | - | 521 W/m² | - |
| 1777760151 | 25.56° C | 33% | 1017.2 hPa | 0 mm | - | 537 W/m² | - |
| 1777759848 | 25.56° C | 33% | 1017.4 hPa | 0 mm | - | 550 W/m² | - |
| 1777759544 | 25.56° C | 31% | 1017.2 hPa | 0 mm | - | 570 W/m² | - |
| 1777759240 | 25.56° C | 30% | 1017.3 hPa | 0 mm | - | 588 W/m² | - |
| 1777758938 | 25° C | 32% | 1017.2 hPa | 0 mm | - | 600 W/m² | - |
| 1777758635 | 26.11° C | 32% | 1017.4 hPa | 0 mm | - | 620 W/m² | - |
| 1777758331 | 25.56° C | 29% | 1017.5 hPa | 0 mm | - | 647 W/m² | - |
| 1777758029 | 25.56° C | 31% | 1017.5 hPa | 0 mm | - | 669 W/m² | - |
| 1777757725 | 25° C | 32% | 1017.4 hPa | 0 mm | - | 692 W/m² | - |
| 1777757424 | 25° C | 31% | 1017.6 hPa | 0 mm | - | 714 W/m² | - |
| 1777757122 | 25.56° C | 35% | 1017.6 hPa | 0 mm | - | 730 W/m² | - |
| 1777756820 | 25° C | 32% | 1017.5 hPa | 0 mm | - | 754 W/m² | - |
| 1777756515 | 24.44° C | 33% | 1017.7 hPa | 0 mm | - | 765 W/m² | - |
| 1777756212 | 25° C | 32% | 1017.6 hPa | 0 mm | - | 787 W/m² | - |
| 1777755909 | 25.56° C | 30% | 1018 hPa | 0 mm | - | 801 W/m² | - |
| 1777755606 | 24.44° C | 33% | 1017.9 hPa | 0 mm | - | 814 W/m² | - |
| 1777755302 | 24.44° C | 33% | 1017.9 hPa | 0 mm | - | 826 W/m² | - |
| 1777755000 | 24.44° C | 32% | 1018 hPa | 0 mm | - | 845 W/m² | - |
| 1777754696 | 24.44° C | 30% | 1018 hPa | 0 mm | - | 857 W/m² | - |
| 1777754395 | 24.44° C | 33% | 1018.2 hPa | 0 mm | - | 867 W/m² | - |
* Rain latest hour (hover to see other rain measurements)
** Current wind speed in m/s (hover to see current wind gust speed)